Погода в Боксмере

Нидерланды     51°38′54″N   5°56′37″E
темп.,
°C
ветер,
м/с
пор.,
м/с
влажн.,
%
обл.,
%
осадки,
мм/ч
давл.,
гПа
погр.,
м
17 августа, ср
ср1723:00+21всв376399 0.0 1010132
02:00+19всв367974 0.1 1010109
05:00+20всв3674100 0.0 1009125
08:00+18зсз2490100 2.6 1010113
11:00+22с4576100 0.6 1011470
14:00+20с2389100 2.8 1011209
17:00+22зюз3580100 0.9 1011515
20:00+20с24864 3.4 1011116
18 августа, чт
чт1823:00+17ссв22955 0.1 101332
02:00+16с229420 0.1 101313
05:00+15в009698 0.0 101311
08:00+17ссз129494 0.0 1014107
11:00+22с117189 0.0 1014705
14:00+26ссз3249100 0.0 10131571
17:00+27ссз424496 0.0 10131823
20:00+23с466177 0.0 1013330
19 августа, пт
пт1923:00+18св338244 0.0 101445
02:00+16в22914 0.0 101424
05:00+16ссв11910 0.0 101411
08:00+18з12811 0.0 101594
11:00+24зсз33543 0.0 1015990
14:00+28зсз343922 0.0 10142152
17:00+26сз454455 0.0 10131058
20:00+24зсз585747 0.1 1014448
20 августа, сб
сб2023:00+19сз248557 1.5 101575
02:00+17з119191 1.7 101511
05:00+16з229581 0.0 101527
08:00+16зюз3592100 0.0 1016180
11:00+21юз34580 0.0 1016649
14:00+26з453930 0.0 10152379
17:00+25з87350 0.0 10151946
20:00+21зсз57446 0.0 1016461
21 августа, вс
вс2123:00+15зсз346311 0.0 101742
02:00+14юз1171100 0.0 101711
05:00+13ююз357697 0.0 101781
08:00+15юз367378 0.0 1017173
11:00+22юз44505 0.0 10161160
14:00+25зюз4438100 0.0 10152408
17:00+24зсз354565 0.0 1016833
20:00+21ссз354831 0.0 1016137